Voltar ao catálogo

STARLINK-30981

AtivoComunicaçõesVLEO
NORAD 58494·PAYLOAD·🇺🇸 United States

Lançado Dec 3, 2023 de Cape Canaveral Space Force Station

Loading…

Próximas Passagens (próximas 24 horas)

TLE

AtualizadoSource: CelesTrak SupGP

Época: Sep 14, 2026, 20:45 UTC

1 58494C 23186X   26257.86506944  .00018106  00000+0  65584-3 0  2577
2 58494  43.0035  75.0062 0001346 274.1843   3.4955 15.27567640    10

Acompanhe STARLINK-30981 em tempo real com AllMySat

Download on the App Store